This demonstration page uses our WeatherBlox Daily Observations layout. Learn more.

Left ArrowRight Arrow

39.12711, -84.51439

Hourly Observations for October 10, 2020

Temp ( °F °C ) Dew Point ( °F °C ) Humidity (%) Winds ( mph kmh ) Pressure ( in mb ) Visibility ( mi km ) Precip ( " mm )
12:53 am 00:53 Clear 62 16.7 59 15 90 90 SSE 3 6 30.01 1016 10 16 0.00 0.00
1:53 am 01:53 Clear 59 15 57 13.9 93 93 Calm 30.01 1016 10 16 0.00 0.00
2:31 am 02:31 Clear with Mist and Fog 58 14.4 58 14.4 100 100 Calm 30.02 1017 2 3 0.00 0.00
2:37 am 02:37 Clear with Mist and Fog 58 14.4 57 13.9 97 97 Calm 30.01 1016 3 5 0.00 0.00
2:53 am 02:53 Clear 60 15.6 59 15 96 96 SSW 3 6 30.00 1016 10 16 0.00 0.00
3:53 am 03:53 Mostly Cloudy 60 15.6 58 14.4 93 93 Calm 30.00 1016 8 13 0.00 0.00
4:53 am 04:53 Cloudy 61 16.1 59 15 93 93 Calm 29.99 1016 10 16 0.00 0.00
5:53 am 05:53 Cloudy 61 16.1 58 14.4 90 90 Calm 30.00 1016 10 16 0.00 0.00
6:53 am 06:53 Cloudy 62 16.7 60 15.6 93 93 Calm 30.01 1016 10 16 0.00 0.00
7:53 am 07:53 Cloudy 65 18.3 60 15.6 84 84 Calm 30.02 1017 10 16 0.00 0.00
8:53 am 08:53 Cloudy 65 18.3 61 16.1 87 87 SSW 3 6 30.02 1017 10 16 0.01 0.25
9:53 am 09:53 Cloudy 66 18.9 61 16.1 84 84 SSW 7 11 30.03 1017 10 16 0.00 0.00
10:53 am 10:53 Cloudy 68 20 62 16.7 81 81 S 8 13 30.02 1017 10 16 0.00 0.00
11:53 am 11:53 Cloudy 69 20.6 62 16.7 78 78 S 9 15 30.01 1016 10 16 0.00 0.00
12:53 pm 12:53 Cloudy 71 21.7 63 17.2 76 76 SSW 9 15 30.00 1016 10 16 0.00 0.00
1:53 pm 13:53 Cloudy 72 22.2 63 17.2 73 73 S 10 17 29.98 1015 10 16 0.00 0.00
2:53 pm 14:53 Cloudy 72 22.2 63 17.2 73 73 SSW 6 9 29.97 1015 10 16 0.00 0.00
3:53 pm 15:53 Cloudy 73 22.8 64 17.8 74 74 S 6 9 29.96 1015 10 16 0.00 0.00
4:00 pm 16:00 Mostly Cloudy 73 22.8 64 17.8 74 74 S 5 7 29.95 1014 10 16 0.00 0.00
4:20 pm 16:20 Mostly Cloudy 73 22.8 64 17.8 74 74 Calm 29.95 1014 10 16 0.00 0.00
4:53 pm 16:53 Cloudy 73 22.8 65 18.3 76 76 SSE 3 6 29.95 1014 10 16 0.00 0.00
5:53 pm 17:53 Cloudy 72 22.2 65 18.3 79 79 SE 3 6 29.93 1014 10 16 0.00 0.00
6:53 pm 18:53 Mostly Cloudy 71 21.7 64 17.8 79 79 SE 5 7 29.94 1014 10 16 0.00 0.00
7:53 pm 19:53 Mostly Cloudy 67 19.4 64 17.8 91 91 SE 3 6 29.95 1014 10 16 0.00 0.00
8:00 pm 20:00 Mostly Clear 66 18.9 64 17.8 93 93 SE 5 7 29.95 1014 10 16 0.00 0.00
8:53 pm 20:53 Clear 65 18.3 63 17.2 93 93 W 3 6 29.94 1014 10 16 0.00 0.00
9:53 pm 21:53 Clear 62 16.7 61 16.1 96 96 SSW 6 9 29.97 1015 9 14 0.00 0.00
10:53 pm 22:53 Clear 63 17.2 62 16.7 97 97 NNE 3 6 29.96 1015 9 14 0.00 0.00
11:44 pm 23:44 Clear with Mist and Fog 62 16.7 61 16.1 96 96 SSW 3 6 29.95 1014 2 2 0.00 0.00
11:50 pm 23:50 Mostly Cloudy with Fog 63 17 61 16 94 94 Calm 29.94 1014 1 1 0.00 0.00
11:53 pm 23:53 Mostly Cloudy with Fog 61 16.1 60 15.6 97 97 S 3 6 29.93 1014 1 1 0.00 0.00

Powered by AerisWeather